This is the latest recevied weather packets stored in our database for station/object K5WNG. If no packets are shown the sender has not sent any weather packets the latest 10 day(s).
| Time | Temp. | Humidity | Pressure | Rain* | Wind** | Luminosity | Snow |
|---|---|---|---|---|---|---|---|
| 1777404318 | 27.78° C | 81% | 1012.6 hPa | 0 mm | - | 397 W/m² | - |
| 1777404018 | 27.78° C | 82% | 1012.6 hPa | 0 mm | - | 324 W/m² | - |
| 1777403721 | 27.22° C | 82% | 1012.6 hPa | 0 mm | - | 288 W/m² | - |
| 1777403420 | 27.22° C | 83% | 1012.7 hPa | 0 mm | - | 255 W/m² | - |
| 1777401319 | 26.67° C | 83% | 1012.9 hPa | 0 mm | - | 99 W/m² | - |
| 1777400119 | 26.67° C | 84% | 1012.7 hPa | 0 mm | - | 211 W/m² | - |
| 1777399817 | 26.67° C | 84% | 1012.7 hPa | 0 mm | - | 132 W/m² | - |
| 1777397719 | 27.22° C | 82% | 1012.4 hPa | 0 mm | - | 153 W/m² | - |
| 1777397416 | 27.22° C | 82% | 1012.5 hPa | 0 mm | - | 215 W/m² | - |
| 1777397117 | 26.67° C | 83% | 1012.5 hPa | 0 mm | - | 318 W/m² | - |
| 1777396817 | 26.67° C | 83% | 1012.4 hPa | 0 mm | - | 267 W/m² | - |
| 1777396217 | 26.67° C | 83% | 1012.4 hPa | 0 mm | - | 249 W/m² | - |
| 1777395620 | 26.67° C | 83% | 1012.4 hPa | 0 mm | - | 237 W/m² | - |
| 1777395320 | 26.67° C | 83% | 1012.5 hPa | 0 mm | - | 247 W/m² | - |
| 1777395017 | 26.67° C | 83% | 1012.6 hPa | 0 mm | - | 199 W/m² | - |
| 1777394417 | 27.22° C | 83% | 1012.6 hPa | 0 mm | - | 252 W/m² | - |
| 1777394120 | 27.22° C | 83% | 1012.6 hPa | 0 mm | - | 266 W/m² | - |
| 1777393818 | 27.22° C | 83% | 1012.7 hPa | 0 mm | - | 294 W/m² | - |
| 1777392918 | 27.22° C | 82% | 1012.9 hPa | 0 mm | - | 244 W/m² | - |
| 1777392618 | 27.22° C | 82% | 1012.8 hPa | 0 mm | - | 279 W/m² | - |
| 1777392021 | 26.67° C | 83% | 1012.8 hPa | 0 mm | - | 424 W/m² | - |
| 1777391718 | 26.67° C | 84% | 1012.8 hPa | 0 mm | - | 442 W/m² | - |
| 1777391418 | 26.67° C | 84% | 1012.7 hPa | 0 mm | - | 425 W/m² | - |
| 1777391126 | 26.11° C | 85% | 1012.7 hPa | 0 mm | - | 388 W/m² | - |
| 1777390518 | 26.11° C | 85% | 1012.8 hPa | 0 mm | - | 273 W/m² | - |
* Rain latest hour (hover to see other rain measurements)
** Current wind speed in m/s (hover to see current wind gust speed)